IGO128 KMCO-KMIA

Flight info

Callsign IGO128
Flight time 0h 38m
Altitude 23000
Route DDANY3 DDANY CSTAL3
Aircraft A20N/M-SDE2E3FGHIRWXY/LB1

Departure

Time 2026-05-07 19:39
Airport Orlando International Airport (KMCO)

Arrival

Time 2026-05-07 20:17
Airport Miami International Airport (KMIA)
Time Latitude Longitude Altitude Speed Heading
2026-05-07 19:18 28.43549 -81.30057 101 ft 0 kts 253°
2026-05-07 19:32 28.43549 -81.30054 100 ft 1 kts 253°
2026-05-07 19:32 28.43551 -81.30048 100 ft 0 kts 253°
2026-05-07 19:32 28.43553 -81.30041 99 ft 1 kts 253°
2026-05-07 19:32 28.43555 -81.30033 99 ft 1 kts 253°
2026-05-07 19:33 28.43572 -81.29966 101 ft 10 kts 255°
2026-05-07 19:33 28.43603 -81.29894 99 ft 8 kts 232°
2026-05-07 19:33 28.43611 -81.29886 98 ft 0 kts 181°
2026-05-07 19:35 28.43594 -81.29886 99 ft 4 kts 180°
2026-05-07 19:36 28.43560 -81.29874 102 ft 5 kts 144°
2026-05-07 19:36 28.43549 -81.29848 102 ft 3 kts 102°
2026-05-07 19:36 28.43550 -81.29815 103 ft 7 kts 89°
2026-05-07 19:36 28.43551 -81.29740 103 ft 12 kts 89°
2026-05-07 19:37 28.43551 -81.29705 103 ft 0 kts 89°
2026-05-07 19:37 28.43551 -81.29704 103 ft 1 kts 89°
2026-05-07 19:37 28.43552 -81.29671 103 ft 12 kts 89°
2026-05-07 19:38 28.43490 -81.29585 105 ft 13 kts 175°
2026-05-07 19:38 28.43462 -81.29584 105 ft 0 kts 179°
2026-05-07 19:38 28.43263 -81.29586 107 ft 73 kts 180°
2026-05-07 19:39 28.42478 -81.29578 100 ft 149 kts 179°
2026-05-07 19:39 28.41237 -81.29562 156 ft 205 kts 181°
2026-05-07 19:39 28.39807 -81.29556 1328 ft 175 kts 184°
2026-05-07 19:39 28.38545 -81.29377 2380 ft 200 kts 160°
2026-05-07 19:40 28.37249 -81.28532 3078 ft 229 kts 146°
2026-05-07 19:40 28.36045 -81.27343 3859 ft 240 kts 137°
2026-05-07 19:40 28.34981 -81.25754 4419 ft 267 kts 117°
2026-05-07 19:40 28.34410 -81.23669 5121 ft 283 kts 105°
2026-05-07 19:41 28.33979 -81.21458 6046 ft 291 kts 102°
2026-05-07 19:41 28.33584 -81.19180 6725 ft 297 kts 102°
2026-05-07 19:41 28.33199 -81.16861 7599 ft 299 kts 102°
2026-05-07 19:41 28.32812 -81.14527 8469 ft 303 kts 102°
2026-05-07 19:42 28.32413 -81.12157 9305 ft 308 kts 102°
2026-05-07 19:42 28.32018 -81.09827 10096 ft 313 kts 102°
2026-05-07 19:42 28.31591 -81.07336 10512 ft 333 kts 103°
2026-05-07 19:42 28.31291 -81.05591 10663 ft 349 kts 102°
2026-05-07 19:43 28.30649 -81.01849 11223 ft 368 kts 102°
2026-05-07 19:43 28.30157 -80.98978 11933 ft 373 kts 102°
2026-05-07 19:43 28.29661 -80.96080 12657 ft 378 kts 102°
2026-05-07 19:43 28.29171 -80.93227 13367 ft 382 kts 102°
2026-05-07 19:44 28.28658 -80.90248 14053 ft 387 kts 102°
2026-05-07 19:44 28.28120 -80.87228 14667 ft 392 kts 105°
2026-05-07 19:44 28.27288 -80.84273 15286 ft 395 kts 114°
2026-05-07 19:44 28.26230 -80.81371 15909 ft 401 kts 114°
2026-05-07 19:45 28.25163 -80.78426 16524 ft 405 kts 113°
2026-05-07 19:45 28.24103 -80.75490 17127 ft 410 kts 113°
2026-05-07 19:45 28.23367 -80.73447 17538 ft 414 kts 113°
2026-05-07 19:45 28.21695 -80.69543 18327 ft 417 kts 127°
2026-05-07 19:46 28.19731 -80.67135 18846 ft 416 kts 144°
2026-05-07 19:46 28.17273 -80.65455 19420 ft 411 kts 161°
2026-05-07 19:46 28.14559 -80.64448 19954 ft 410 kts 170°
2026-05-07 19:46 28.11779 -80.63672 20508 ft 412 kts 171°
2026-05-07 19:47 28.08995 -80.62886 21060 ft 415 kts 170°
2026-05-07 19:47 28.06193 -80.62025 21576 ft 420 kts 169°
2026-05-07 19:47 28.03373 -80.61099 22138 ft 423 kts 168°
2026-05-07 19:47 28.00542 -80.60134 22657 ft 426 kts 168°
2026-05-07 19:48 27.97728 -80.59162 22918 ft 429 kts 168°
2026-05-07 19:48 27.94863 -80.58167 22996 ft 430 kts 168°
2026-05-07 19:48 27.92010 -80.57176 22997 ft 429 kts 168°
2026-05-07 19:48 27.89153 -80.56186 23001 ft 430 kts 168°
2026-05-07 19:49 27.86290 -80.55196 23007 ft 429 kts 168°
2026-05-07 19:49 27.83433 -80.54208 23008 ft 429 kts 168°
2026-05-07 19:49 27.80578 -80.53223 23012 ft 429 kts 168°
2026-05-07 19:49 27.77715 -80.52236 23014 ft 429 kts 168°
2026-05-07 19:50 27.74862 -80.51253 23016 ft 430 kts 168°
2026-05-07 19:50 27.71995 -80.50265 23016 ft 430 kts 168°
2026-05-07 19:50 27.69139 -80.49282 23016 ft 430 kts 168°
2026-05-07 19:50 27.66279 -80.48298 23018 ft 430 kts 168°
2026-05-07 19:51 27.63414 -80.47313 23011 ft 430 kts 168°
2026-05-07 19:51 27.60556 -80.46330 23016 ft 430 kts 167°
2026-05-07 19:51 27.57690 -80.45346 23015 ft 429 kts 167°
2026-05-07 19:51 27.54836 -80.44366 23013 ft 430 kts 167°
2026-05-07 19:52 27.52011 -80.43397 23014 ft 430 kts 167°
2026-05-07 19:52 27.49114 -80.42403 23015 ft 430 kts 167°
2026-05-07 19:52 27.46284 -80.41434 23016 ft 430 kts 167°
2026-05-07 19:52 27.43424 -80.40454 23015 ft 430 kts 167°
2026-05-07 19:53 27.40574 -80.39478 23015 ft 430 kts 167°
2026-05-07 19:53 27.37697 -80.38493 23015 ft 430 kts 167°
2026-05-07 19:53 27.34840 -80.37516 23016 ft 430 kts 167°
2026-05-07 19:53 27.31974 -80.36537 23016 ft 430 kts 167°
2026-05-07 19:54 27.29113 -80.35559 23000 ft 430 kts 167°
2026-05-07 19:54 27.26252 -80.34583 22999 ft 430 kts 167°
2026-05-07 19:54 27.23384 -80.33604 22997 ft 430 kts 167°
2026-05-07 19:54 27.20519 -80.32627 22997 ft 430 kts 167°
2026-05-07 19:55 27.17653 -80.31650 22998 ft 430 kts 167°
2026-05-07 19:55 27.14788 -80.30674 22996 ft 430 kts 167°
2026-05-07 19:55 27.11925 -80.29699 22997 ft 430 kts 167°
2026-05-07 19:55 27.09059 -80.28724 22999 ft 430 kts 167°
2026-05-07 19:56 27.06242 -80.27765 23000 ft 430 kts 167°
2026-05-07 19:56 27.04340 -80.27119 23000 ft 430 kts 167°
2026-05-07 19:56 27.01477 -80.26146 23000 ft 430 kts 167°
2026-05-07 19:56 26.97686 -80.24858 22972 ft 428 kts 167°
2026-05-07 19:57 26.95764 -80.24206 22828 ft 427 kts 167°
2026-05-07 19:57 26.92912 -80.23238 22451 ft 427 kts 167°
2026-05-07 19:57 26.90111 -80.22288 22031 ft 425 kts 167°
2026-05-07 19:57 26.86345 -80.21011 21462 ft 420 kts 166°
2026-05-07 19:58 26.84494 -80.20384 21187 ft 417 kts 166°
2026-05-07 19:58 26.81725 -80.19447 20774 ft 415 kts 166°
2026-05-07 19:58 26.78969 -80.18514 20369 ft 413 kts 166°
2026-05-07 19:58 26.76310 -80.17615 19979 ft 411 kts 166°
2026-05-07 19:59 26.73586 -80.16695 19584 ft 408 kts 166°
2026-05-07 19:59 26.70870 -80.15777 19195 ft 406 kts 166°
2026-05-07 19:59 26.68170 -80.14865 18808 ft 404 kts 166°
2026-05-07 19:59 26.65502 -80.13965 18434 ft 402 kts 165°
2026-05-07 20:00 26.62836 -80.13067 18019 ft 399 kts 165°
2026-05-07 20:00 26.60195 -80.12176 17589 ft 395 kts 165°
2026-05-07 20:00 26.57573 -80.11293 17175 ft 392 kts 165°
2026-05-07 20:00 26.54958 -80.10412 16711 ft 389 kts 165°
2026-05-07 20:01 26.52415 -80.09556 16224 ft 386 kts 165°
2026-05-07 20:01 26.49850 -80.08693 15665 ft 384 kts 165°
2026-05-07 20:01 26.47259 -80.07821 15068 ft 383 kts 165°
2026-05-07 20:01 26.44711 -80.07125 14520 ft 381 kts 171°
2026-05-07 20:02 26.42109 -80.06586 13967 ft 379 kts 171°
2026-05-07 20:02 26.39525 -80.06037 13384 ft 377 kts 169°
2026-05-07 20:02 26.36996 -80.05354 12775 ft 368 kts 167°
2026-05-07 20:02 26.34541 -80.04677 12192 ft 358 kts 167°
2026-05-07 20:03 26.32152 -80.04020 11614 ft 350 kts 167°
2026-05-07 20:03 26.29829 -80.03382 11196 ft 337 kts 167°
2026-05-07 20:03 26.27622 -80.02778 11044 ft 316 kts 167°
2026-05-07 20:03 26.25541 -80.02455 11011 ft 299 kts 179°
2026-05-07 20:04 26.23449 -80.02624 11009 ft 304 kts 191°
2026-05-07 20:04 26.21355 -80.03113 11007 ft 302 kts 192°
2026-05-07 20:04 26.19298 -80.03589 11007 ft 302 kts 192°
2026-05-07 20:04 26.17252 -80.04057 11005 ft 303 kts 192°
2026-05-07 20:05 26.15207 -80.04522 11007 ft 303 kts 192°
2026-05-07 20:05 26.13127 -80.04996 10999 ft 303 kts 192°
2026-05-07 20:05 26.11062 -80.05466 10996 ft 303 kts 192°
2026-05-07 20:05 26.08988 -80.05939 10997 ft 304 kts 192°
2026-05-07 20:06 26.06924 -80.06410 10914 ft 302 kts 192°
2026-05-07 20:06 26.04873 -80.06905 10649 ft 300 kts 193°
2026-05-07 20:06 26.02840 -80.07438 10302 ft 299 kts 193°
2026-05-07 20:06 26.00815 -80.07979 9941 ft 298 kts 193°
2026-05-07 20:07 25.98805 -80.08511 9549 ft 296 kts 193°
2026-05-07 20:07 25.96807 -80.09035 9153 ft 294 kts 193°
2026-05-07 20:07 25.94830 -80.09549 8756 ft 292 kts 193°
2026-05-07 20:07 25.92895 -80.10223 8370 ft 290 kts 206°
2026-05-07 20:08 25.91271 -80.11463 8100 ft 285 kts 224°
2026-05-07 20:08 25.89933 -80.13097 8018 ft 290 kts 228°
2026-05-07 20:08 25.88648 -80.14853 7999 ft 288 kts 239°
2026-05-07 20:08 25.87953 -80.16901 7998 ft 288 kts 261°
2026-05-07 20:09 25.87846 -80.19127 7997 ft 288 kts 269°
2026-05-07 20:09 25.87803 -80.21307 7998 ft 274 kts 268°
2026-05-07 20:09 25.87742 -80.23375 7936 ft 261 kts 268°
2026-05-07 20:10 25.87610 -80.27326 7129 ft 255 kts 268°
2026-05-07 20:10 25.87544 -80.29300 6650 ft 255 kts 268°
2026-05-07 20:10 25.87479 -80.31274 6151 ft 256 kts 268°
2026-05-07 20:10 25.87416 -80.33219 5638 ft 255 kts 268°
2026-05-07 20:11 25.87350 -80.35184 5189 ft 252 kts 268°
2026-05-07 20:11 25.87286 -80.37087 5015 ft 239 kts 268°
2026-05-07 20:11 25.86967 -80.38816 4874 ft 222 kts 243°
2026-05-07 20:11 25.86035 -80.40094 4740 ft 207 kts 224°
2026-05-07 20:12 25.85019 -80.41150 4643 ft 191 kts 225°
2026-05-07 20:12 25.84104 -80.42114 4562 ft 173 kts 225°
2026-05-07 20:12 25.83271 -80.42992 4432 ft 159 kts 226°
2026-05-07 20:12 25.82484 -80.43831 4177 ft 156 kts 226°
2026-05-07 20:13 25.81679 -80.44642 3897 ft 157 kts 215°
2026-05-07 20:13 25.80589 -80.44877 3444 ft 173 kts 170°
2026-05-07 20:13 25.79531 -80.44163 2938 ft 189 kts 130°
2026-05-07 20:13 25.79077 -80.42800 2460 ft 194 kts 93°
2026-05-07 20:14 25.79189 -80.41339 2200 ft 183 kts 80°
2026-05-07 20:14 25.79408 -80.40073 2334 ft 155 kts 79°
2026-05-07 20:14 25.79608 -80.38932 2238 ft 146 kts 79°
2026-05-07 20:14 25.79745 -80.37828 2076 ft 143 kts 85°
2026-05-07 20:15 25.79802 -80.36730 1938 ft 141 kts 90°
2026-05-07 20:15 25.79843 -80.35644 1743 ft 140 kts 89°
2026-05-07 20:15 25.79886 -80.34581 1572 ft 137 kts 89°
2026-05-07 20:15 25.79930 -80.33505 1291 ft 140 kts 90°
2026-05-07 20:16 25.79973 -80.32469 1160 ft 129 kts 90°
2026-05-07 20:16 25.80014 -80.31430 679 ft 143 kts 89°
2026-05-07 20:16 25.80076 -80.30287 142 ft 151 kts 91°
2026-05-07 20:16 25.80113 -80.29190 26 ft 130 kts 91°
2026-05-07 20:17 25.80140 -80.28293 15 ft 101 kts 86°
2026-05-07 20:17 25.80168 -80.27687 16 ft 58 kts 86°
2026-05-07 20:17 25.80186 -80.27323 19 ft 44 kts 89°
2026-05-07 20:17 25.80193 -80.27011 23 ft 18 kts 115°
2026-05-07 20:18 25.80094 -80.26999 21 ft 18 kts 215°
2026-05-07 20:18 25.80078 -80.27072 21 ft 9 kts 287°
2026-05-07 20:18 25.80083 -80.27157 22 ft 13 kts 267°
2026-05-07 20:18 25.80081 -80.27183 23 ft 0 kts 266°
2026-05-07 20:20 25.80080 -80.27190 23 ft 3 kts 258°
2026-05-07 20:20 25.80041 -80.27211 25 ft 9 kts 192°
2026-05-07 20:20 25.79989 -80.27256 26 ft 11 kts 226°
2026-05-07 20:20 25.79911 -80.27273 24 ft 13 kts 179°
2026-05-07 20:21 25.79884 -80.27269 24 ft 0 kts 179°